Retour au catalogue

FENGYUN 1C DEB

LostSSO
NORAD 31662·DEBRIS·🇨🇳 China

Lancé May 10, 1999 depuis Taiyuan Satellite Launch Center

Loading…

Prochains Passages (prochaines 24 heures)

TLE

PériméSource: Space-Track

Époque: Aug 9, 2010, 17:31 UTC

1 31662U 99025CBU 10221.73015106 -.00000041  00000-0  15524-5 0  9990
2 31662  98.9687 199.0028 0048105  56.7627 302.2132 14.03367415171755

Suivez FENGYUN 1C DEB en temps réel avec AllMySat

Download on the App Store